| time (UTC) | temp F | wind direction | speed knots | gust knots | rain 1hr in | rain 24hr in | rain mn in | humidity % | barometer mb |
| 20260508140840 | 50 | 0 | 0.0 | 0.0 | 0.00 | 0.00 | 0.00 | 86 | 1020.6 |
| 20260508140327 | 50 | 0 | 0.0 | 0.0 | 0.00 | 0.00 | 0.00 | 86 | 1020.8 |
| 20260508135814 | 50 | 0 | 0.0 | 0.0 | 0.00 | 0.00 | 0.00 | 86 | 1020.9 |
| 20260508135301 | 50 | 0 | 0.0 | 0.0 | 0.00 | 0.00 | 0.00 | 86 | 1020.9 |
| 20260508134748 | 50 | 0 | 0.0 | 0.0 | 0.00 | 0.00 | 0.00 | 86 | 1020.8 |
| 20260508134235 | 49 | 0 | 0.0 | 0.0 | 0.00 | 0.00 | 0.00 | 86 | 1020.8 |
| 20260508133722 | 50 | 0 | 0.0 | 0.0 | 0.00 | 0.00 | 0.00 | 86 | 1020.7 |
| 20260508133209 | 50 | 0 | 0.0 | 0.0 | 0.00 | 0.00 | 0.00 | 86 | 1020.8 |
| 20260508132656 | 50 | 0 | 0.0 | 0.0 | 0.00 | 0.00 | 0.00 | 86 | 1020.8 |
| 20260508132143 | 50 | 0 | 0.0 | 0.0 | 0.00 | 0.00 | 0.00 | 86 | 1020.9 |
| 20260508131117 | 50 | 0 | 0.0 | 0.0 | 0.00 | 0.00 | 0.00 | 86 | 1020.9 |
| 20260508130604 | 49 | 0 | 0.0 | 0.0 | 0.00 | 0.00 | 0.00 | 86 | 1020.8 |
| 20260508125538 | 50 | 0 | 0.0 | 0.0 | 0.00 | 0.00 | 0.00 | 87 | 1020.9 |
| 20260508125026 | 50 | 0 | 0.0 | 0.0 | 0.00 | 0.00 | 0.00 | 87 | 1020.9 |
| 20260508124511 | 50 | 0 | 0.0 | 0.0 | 0.00 | 0.00 | 0.00 | 87 | 1021.0 |
| 20260508123446 | 50 | 0 | 0.0 | 5.2 | 0.00 | 0.00 | 0.00 | 87 | 1021.0 |
| 20260508122932 | 49 | 0 | 0.0 | 5.2 | 0.00 | 0.00 | 0.00 | 87 | 1021.1 |
| 20260508121354 | 49 | 0 | 0.0 | 0.0 | 0.00 | 0.00 | 0.00 | 88 | 1020.8 |
| 20260508120328 | 49 | 0 | 0.0 | 3.5 | 0.00 | 0.00 | 0.00 | 88 | 1020.9 |
| 20260508115306 | 49 | 263 | 0.0 | 2.6 | 0.00 | 0.00 | 0.00 | 89 | 1020.7 |
| 20260508114749 | 49 | 263 | 0.9 | 2.6 | 0.00 | 0.00 | 0.00 | 89 | 1020.6 |
| 20260508114235 | 49 | 0 | 0.0 | 0.0 | 0.00 | 0.00 | 0.00 | 89 | 1020.5 |
| 20260508113722 | 49 | 0 | 0.0 | 0.0 | 0.00 | 0.00 | 0.00 | 89 | 1020.5 |
| 20260508112143 | 49 | 0 | 0.0 | 3.5 | 0.00 | 0.00 | 0.00 | 89 | 1020.4 |
| 20260508111631 | 49 | 0 | 0.0 | 3.5 | 0.00 | 0.00 | 0.00 | 89 | 1020.2 |
| 20260508111117 | 49 | 170 | 0.0 | 3.5 | 0.00 | 0.00 | 0.00 | 89 | 1020.2 |
| 20260508110605 | 49 | 0 | 0.0 | 0.0 | 0.00 | 0.00 | 0.00 | 90 | 1020.0 |
| 20260508110051 | 49 | 0 | 0.0 | 2.6 | 0.00 | 0.00 | 0.00 | 90 | 1020.0 |
| 20260508105538 | 49 | 0 | 0.0 | 2.6 | 0.00 | 0.00 | 0.00 | 90 | 1020.0 |
| 20260508105025 | 49 | 155 | 0.0 | 2.6 | 0.00 | 0.00 | 0.00 | 90 | 1020.0 |
| 20260508104604 | 48 | 0 | 0.0 | 0.0 | 0.00 | 0.00 | 0.00 | 90 | 1020.1 |
| 20260508104512 | 48 | 0 | 0.0 | 0.0 | 0.00 | 0.00 | 0.00 | 90 | 1020.1 |
| 20260508103959 | 48 | 0 | 0.0 | 0.0 | 0.00 | 0.00 | 0.00 | 90 | 1020.0 |
| 20260508103446 | 48 | 0 | 0.0 | 0.0 | 0.00 | 0.00 | 0.00 | 90 | 1020.1 |
| 20260508102933 | 48 | 0 | 0.0 | 0.0 | 0.00 | 0.00 | 0.00 | 90 | 1020.1 |
| 20260508102420 | 48 | 0 | 0.0 | 0.0 | 0.00 | 0.00 | 0.00 | 90 | 1020.0 |
| 20260508101907 | 48 | 0 | 0.0 | 0.0 | 0.00 | 0.00 | 0.00 | 90 | 1019.9 |
| 20260508101354 | 48 | 0 | 0.0 | 0.0 | 0.00 | 0.00 | 0.00 | 90 | 1019.9 |
| 20260508100933 | 48 | 0 | 0.0 | 0.0 | 0.00 | 0.00 | 0.00 | 90 | 1019.8 |
| 20260508100842 | 48 | 0 | 0.0 | 0.0 | 0.00 | 0.00 | 0.00 | 90 | 1019.8 |
| 20260508100328 | 48 | 0 | 0.0 | 0.0 | 0.00 | 0.00 | 0.00 | 90 | 1019.7 |
| 20260508095815 | 48 | 0 | 0.0 | 0.0 | 0.00 | 0.00 | 0.00 | 90 | 1019.7 |
| 20260508095306 | 48 | 0 | 0.0 | 0.0 | 0.00 | 0.00 | 0.00 | 90 | 1019.7 |
| 20260508094749 | 48 | 0 | 0.0 | 0.0 | 0.00 | 0.00 | 0.00 | 90 | 1019.5 |
| 20260508094236 | 48 | 0 | 0.0 | 0.0 | 0.00 | 0.00 | 0.00 | 90 | 1019.7 |
| 20260508093723 | 48 | 0 | 0.0 | 0.0 | 0.00 | 0.00 | 0.00 | 90 | 1019.7 |
| 20260508093210 | 48 | 0 | 0.0 | 0.0 | 0.00 | 0.00 | 0.00 | 90 | 1019.8 |
| 20260508092657 | 48 | 0 | 0.0 | 0.0 | 0.00 | 0.00 | 0.00 | 90 | 1019.7 |
| 20260508092144 | 48 | 0 | 0.0 | 0.0 | 0.00 | 0.00 | 0.00 | 90 | 1019.7 |
| 20260508091631 | 48 | 0 | 0.0 | 0.0 | 0.00 | 0.00 | 0.00 | 90 | 1019.6 |
| 20260508091120 | 48 | 0 | 0.0 | 0.0 | 0.00 | 0.00 | 0.00 | 90 | 1019.6 |
| 20260508090605 | 47 | 0 | 0.0 | 0.0 | 0.00 | 0.00 | 0.00 | 90 | 1019.6 |
| 20260508090052 | 47 | 0 | 0.0 | 0.0 | 0.00 | 0.00 | 0.00 | 90 | 1019.5 |
| 20260508085539 | 47 | 0 | 0.0 | 0.0 | 0.00 | 0.00 | 0.00 | 90 | 1019.5 |
| 20260508085026 | 47 | 0 | 0.0 | 0.0 | 0.00 | 0.00 | 0.00 | 90 | 1019.3 |
| 20260508084000 | 47 | 0 | 0.0 | 0.0 | 0.00 | 0.00 | 0.00 | 90 | 1019.3 |
| 20260508083447 | 47 | 0 | 0.0 | 0.0 | 0.00 | 0.00 | 0.00 | 90 | 1019.3 |
| 20260508082935 | 47 | 0 | 0.0 | 0.0 | 0.00 | 0.00 | 0.00 | 90 | 1019.1 |
| 20260508082422 | 47 | 0 | 0.0 | 0.0 | 0.00 | 0.00 | 0.00 | 90 | 1019.0 |
| 20260508081908 | 47 | 0 | 0.0 | 0.0 | 0.00 | 0.00 | 0.00 | 90 | 1018.9 |
| 20260508081355 | 47 | 0 | 0.0 | 0.0 | 0.00 | 0.00 | 0.00 | 90 | 1019.0 |
| 20260508080845 | 47 | 0 | 0.0 | 0.0 | 0.00 | 0.00 | 0.00 | 90 | 1019.0 |
| 20260508080329 | 46 | 0 | 0.0 | 0.0 | 0.00 | 0.00 | 0.00 | 90 | 1019.0 |
| 20260508075816 | 46 | 0 | 0.0 | 0.0 | 0.00 | 0.00 | 0.00 | 90 | 1018.8 |
| 20260508075308 | 46 | 0 | 0.0 | 0.0 | 0.00 | 0.00 | 0.00 | 89 | 1018.9 |
| 20260508074750 | 46 | 0 | 0.0 | 0.0 | 0.00 | 0.00 | 0.00 | 89 | 1019.0 |
| 20260508074237 | 46 | 0 | 0.0 | 0.0 | 0.00 | 0.00 | 0.00 | 89 | 1019.0 |
| 20260508073211 | 46 | 0 | 0.0 | 0.0 | 0.00 | 0.00 | 0.00 | 89 | 1019.0 |
| 20260508072658 | 45 | 0 | 0.0 | 0.0 | 0.00 | 0.00 | 0.00 | 89 | 1019.0 |
| 20260508071632 | 45 | 0 | 0.0 | 0.0 | 0.00 | 0.00 | 0.00 | 88 | 1018.9 |
| 20260508071120 | 45 | 0 | 0.0 | 0.0 | 0.00 | 0.00 | 0.00 | 88 | 1018.8 |
| 20260508070606 | 45 | 0 | 0.0 | 0.0 | 0.00 | 0.00 | 0.00 | 88 | 1018.8 |
| 20260508070053 | 45 | 0 | 0.0 | 0.0 | 0.00 | 0.00 | 0.00 | 88 | 1018.7 |
| 20260508065540 | 45 | 0 | 0.0 | 0.0 | 0.00 | 0.00 | 0.00 | 88 | 1018.7 |
| 20260508065027 | 45 | 0 | 0.0 | 0.0 | 0.00 | 0.00 | 0.00 | 87 | 1018.8 |
| 20260508064001 | 45 | 0 | 0.0 | 0.0 | 0.00 | 0.00 | 0.00 | 87 | 1018.7 |
| 20260508063448 | 45 | 0 | 0.0 | 0.0 | 0.00 | 0.00 | 0.00 | 87 | 1018.8 |
| 20260508062935 | 45 | 0 | 0.0 | 0.0 | 0.00 | 0.00 | 0.00 | 87 | 1018.7 |
| 20260508062422 | 45 | 0 | 0.0 | 0.0 | 0.00 | 0.00 | 0.00 | 86 | 1018.6 |
| 20260508061909 | 45 | 0 | 0.0 | 0.0 | 0.00 | 0.00 | 0.00 | 86 | 1018.6 |
| 20260508061356 | 45 | 0 | 0.0 | 0.0 | 0.00 | 0.00 | 0.00 | 86 | 1018.5 |
| 20260508060843 | 45 | 0 | 0.0 | 0.0 | 0.00 | 0.00 | 0.00 | 86 | 1018.5 |
| 20260508060330 | 46 | 0 | 0.0 | 0.0 | 0.00 | 0.00 | 0.00 | 85 | 1018.6 |
| 20260508055817 | 46 | 0 | 0.0 | 0.0 | 0.00 | 0.00 | 0.00 | 85 | 1018.6 |
| 20260508055306 | 46 | 0 | 0.0 | 0.0 | 0.00 | 0.00 | 0.00 | 85 | 1018.5 |
| 20260508054751 | 46 | 0 | 0.0 | 0.0 | 0.00 | 0.00 | 0.00 | 85 | 1018.5 |
| 20260508053725 | 46 | 0 | 0.0 | 0.0 | 0.00 | 0.00 | 0.00 | 84 | 1018.5 |
| 20260508053212 | 46 | 0 | 0.0 | 0.0 | 0.00 | 0.00 | 0.00 | 84 | 1018.5 |
| 20260508052659 | 46 | 0 | 0.0 | 0.0 | 0.00 | 0.00 | 0.00 | 84 | 1018.5 |
| 20260508052146 | 46 | 0 | 0.0 | 0.0 | 0.00 | 0.00 | 0.00 | 83 | 1018.5 |
| 20260508051633 | 46 | 0 | 0.0 | 0.0 | 0.00 | 0.00 | 0.00 | 83 | 1018.5 |
| 20260508051121 | 47 | 0 | 0.0 | 0.0 | 0.00 | 0.00 | 0.00 | 83 | 1018.4 |
| 20260508050607 | 47 | 0 | 0.0 | 0.0 | 0.00 | 0.00 | 0.00 | 82 | 1018.4 |
| 20260508050054 | 47 | 0 | 0.0 | 0.0 | 0.00 | 0.00 | 0.00 | 82 | 1018.4 |
| 20260508045541 | 47 | 0 | 0.0 | 0.0 | 0.00 | 0.00 | 0.00 | 82 | 1018.5 |
| 20260508045028 | 47 | 0 | 0.0 | 0.0 | 0.00 | 0.00 | 0.00 | 82 | 1018.6 |
| 20260508044515 | 48 | 0 | 0.0 | 0.0 | 0.00 | 0.00 | 0.00 | 82 | 1018.5 |
| 20260508044002 | 48 | 0 | 0.0 | 0.0 | 0.00 | 0.00 | 0.00 | 82 | 1018.5 |
| 20260508043449 | 48 | 0 | 0.0 | 0.0 | 0.00 | 0.00 | 0.00 | 81 | 1018.5 |
| 20260508042936 | 48 | 0 | 0.0 | 0.0 | 0.00 | 0.00 | 0.00 | 81 | 1018.3 |
| 20260508042423 | 48 | 0 | 0.0 | 0.0 | 0.00 | 0.00 | 0.00 | 81 | 1018.4 |
| 20260508041910 | 48 | 0 | 0.0 | 0.0 | 0.00 | 0.00 | 0.00 | 81 | 1018.4 |
| 20260508041357 | 48 | 0 | 0.0 | 0.0 | 0.00 | 0.00 | 0.00 | 81 | 1018.3 |
| 20260508040844 | 48 | 0 | 0.0 | 0.0 | 0.00 | 0.00 | 0.00 | 80 | 1018.2 |
| 20260508040331 | 49 | 0 | 0.0 | 0.0 | 0.00 | 0.00 | 0.00 | 80 | 1018.3 |
| 20260508035818 | 49 | 0 | 0.0 | 0.0 | 0.00 | 0.00 | 0.00 | 80 | 1018.3 |
| 20260508035306 | 49 | 0 | 0.0 | 0.0 | 0.00 | 0.00 | 0.00 | 80 | 1018.3 |
| 20260508034752 | 50 | 0 | 0.0 | 0.0 | 0.00 | 0.00 | 0.00 | 79 | 1018.3 |
| 20260508034239 | 50 | 0 | 0.0 | 0.0 | 0.00 | 0.00 | 0.00 | 79 | 1018.4 |
| 20260508033726 | 50 | 0 | 0.0 | 0.0 | 0.00 | 0.00 | 0.00 | 79 | 1018.3 |
| 20260508033213 | 50 | 0 | 0.0 | 0.0 | 0.00 | 0.00 | 0.00 | 79 | 1018.2 |
| 20260508032700 | 51 | 0 | 0.0 | 0.0 | 0.00 | 0.00 | 0.00 | 79 | 1018.2 |
| 20260508032147 | 51 | 0 | 0.0 | 0.0 | 0.00 | 0.00 | 0.00 | 78 | 1018.1 |
| 20260508031634 | 51 | 0 | 0.0 | 0.0 | 0.00 | 0.00 | 0.00 | 78 | 1018.1 |
| 20260508031121 | 51 | 0 | 0.0 | 0.0 | 0.00 | 0.00 | 0.00 | 78 | 1018.0 |
| 20260508030608 | 51 | 0 | 0.0 | 0.0 | 0.00 | 0.00 | 0.00 | 78 | 1018.0 |
| 20260508030055 | 51 | 0 | 0.0 | 0.0 | 0.00 | 0.00 | 0.00 | 78 | 1017.9 |
| 20260508025542 | 51 | 0 | 0.0 | 4.3 | 0.00 | 0.00 | 0.00 | 77 | 1017.9 |
| 20260508025029 | 51 | 0 | 0.0 | 4.3 | 0.00 | 0.00 | 0.00 | 77 | 1017.9 |
| 20260508024517 | 51 | 0 | 0.0 | 4.3 | 0.00 | 0.00 | 0.00 | 77 | 1018.0 |
| 20260508024003 | 51 | 0 | 0.0 | 2.6 | 0.00 | 0.00 | 0.00 | 77 | 1018.0 |
| 20260508023450 | 52 | 0 | 0.0 | 2.6 | 0.00 | 0.00 | 0.00 | 77 | 1018.1 |
| 20260508022424 | 52 | 0 | 0.0 | 0.0 | 0.00 | 0.00 | 0.00 | 77 | 1017.8 |
| 20260508021911 | 52 | 53 | 4.3 | 7.8 | 0.00 | 0.00 | 0.00 | 76 | 1017.9 |
| 20260508021358 | 52 | 0 | 0.0 | 7.8 | 0.00 | 0.00 | 0.00 | 76 | 1018.0 |
| 20260508020845 | 52 | 91 | 5.2 | 7.8 | 0.00 | 0.00 | 0.00 | 76 | 1017.9 |
| 20260508020332 | 52 | 117 | 1.7 | 7.0 | 0.00 | 0.00 | 0.00 | 76 | 1018.1 |
| 20260508015819 | 52 | 0 | 0.0 | 5.2 | 0.00 | 0.00 | 0.00 | 76 | 1018.0 |
| 20260508014753 | 53 | 15 | 4.3 | 10.4 | 0.00 | 0.00 | 0.00 | 75 | 1018.0 |
| 20260508014240 | 53 | 280 | 0.9 | 10.4 | 0.00 | 0.00 | 0.00 | 76 | 1018.1 |
| 20260508013727 | 53 | 8 | 0.9 | 10.4 | 0.00 | 0.00 | 0.00 | 75 | 1018.1 |
| 20260508013214 | 53 | 303 | 0.9 | 7.8 | 0.00 | 0.00 | 0.00 | 76 | 1018.1 |
| 20260508012701 | 53 | 326 | 2.6 | 9.6 | 0.00 | 0.00 | 0.00 | 75 | 1018.1 |
| 20260508012148 | 53 | 337 | 3.5 | 9.6 | 0.00 | 0.00 | 0.00 | 75 | 1018.2 |
| 20260508011635 | 53 | 49 | 3.5 | 9.6 | 0.00 | 0.00 | 0.00 | 75 | 1018.1 |
| 20260508011122 | 53 | 44 | 2.6 | 6.1 | 0.00 | 0.00 | 0.00 | 75 | 1018.1 |
| 20260508010609 | 53 | 351 | 0.9 | 10.4 | 0.00 | 0.00 | 0.00 | 75 | 1018.2 |
| 20260508010056 | 53 | 302 | 0.9 | 10.4 | 0.00 | 0.00 | 0.00 | 74 | 1018.3 |
| 20260508005543 | 53 | 294 | 4.3 | 10.4 | 0.00 | 0.00 | 0.00 | 74 | 1018.2 |
| 20260508005030 | 53 | 317 | 1.7 | 8.7 | 0.00 | 0.00 | 0.00 | 75 | 1018.2 |
| 20260508004517 | 53 | 158 | 0.9 | 7.8 | 0.00 | 0.00 | 0.00 | 75 | 1018.1 |
| 20260508004004 | 53 | 126 | 3.5 | 9.6 | 0.00 | 0.00 | 0.00 | 74 | 1018.2 |
| 20260508003451 | 53 | 312 | 2.6 | 9.6 | 0.00 | 0.00 | 0.00 | 74 | 1018.4 |
| 20260508002938 | 53 | 357 | 3.5 | 9.6 | 0.00 | 0.00 | 0.00 | 75 | 1018.4 |
| 20260508002426 | 53 | 327 | 4.3 | 8.7 | 0.00 | 0.00 | 0.00 | 74 | 1018.5 |
| 20260508001912 | 54 | 288 | 4.3 | 7.8 | 0.00 | 0.00 | 0.00 | 74 | 1018.4 |
| 20260508001359 | 53 | 309 | 2.6 | 7.8 | 0.00 | 0.00 | 0.00 | 74 | 1018.6 |
| 20260508000846 | 53 | 322 | 3.5 | 7.8 | 0.00 | 0.00 | 0.00 | 74 | 1018.5 |
| 20260508000334 | 53 | 19 | 0.0 | 9.6 | 0.00 | 0.00 | 0.00 | 75 | 1018.4 |
| 20260507235820 | 53 | 0 | 2.6 | 9.6 | 0.00 | 0.00 | 0.00 | 74 | 1018.5 |
| 20260507235307 | 53 | 316 | 2.6 | 9.6 | 0.00 | 0.00 | 0.00 | 74 | 1018.6 |
| 20260507234754 | 53 | 308 | 4.3 | 9.6 | 0.00 | 0.00 | 0.00 | 74 | 1018.6 |
| 20260507234241 | 53 | 296 | 6.1 | 9.6 | 0.00 | 0.00 | 0.00 | 74 | 1018.6 |
| 20260507233727 | 53 | 329 | 4.3 | 9.6 | 0.00 | 0.00 | 0.00 | 75 | 1018.7 |
| 20260507233215 | 53 | 36 | 3.5 | 7.8 | 0.00 | 0.00 | 0.00 | 74 | 1018.7 |
| 20260507232702 | 53 | 1 | 2.6 | 7.0 | 0.00 | 0.00 | 0.00 | 74 | 1018.8 |
| 20260507231635 | 53 | 355 | 1.7 | 9.6 | 0.00 | 0.00 | 0.00 | 74 | 1018.9 |
| 20260507231123 | 53 | 40 | 3.5 | 9.6 | 0.00 | 0.00 | 0.00 | 74 | 1019.0 |
| 20260507230609 | 53 | 329 | 4.3 | 8.7 | 0.00 | 0.00 | 0.00 | 75 | 1018.9 |
| 20260507230057 | 53 | 42 | 3.5 | 8.7 | 0.00 | 0.00 | 0.00 | 74 | 1019.0 |
| 20260507225543 | 53 | 19 | 2.6 | 8.7 | 0.00 | 0.00 | 0.00 | 75 | 1019.1 |
| 20260507225030 | 54 | 135 | 3.5 | 8.7 | 0.00 | 0.00 | 0.00 | 75 | 1019.0 |
| 20260507224518 | 53 | 331 | 2.6 | 10.4 | 0.00 | 0.00 | 0.00 | 75 | 1019.2 |
| 20260507224006 | 54 | 357 | 2.6 | 10.4 | 0.00 | 0.00 | 0.00 | 75 | 1019.3 |
| 20260507223451 | 53 | 302 | 5.2 | 10.4 | 0.00 | 0.00 | 0.00 | 76 | 1019.3 |
| 20260507222938 | 53 | 323 | 6.1 | 9.6 | 0.00 | 0.00 | 0.00 | 75 | 1019.3 |
| 20260507222425 | 53 | 5 | 2.6 | 9.6 | 0.00 | 0.00 | 0.00 | 75 | 1019.3 |
| 20260507221912 | 53 | 331 | 4.3 | 8.7 | 0.00 | 0.00 | 0.00 | 75 | 1019.3 |
| 20260507221359 | 53 | 33 | 3.5 | 7.8 | 0.00 | 0.00 | 0.00 | 75 | 1019.4 |
| 20260507220846 | 53 | 43 | 5.2 | 7.8 | 0.00 | 0.00 | 0.00 | 75 | 1019.4 |
| 20260507220333 | 53 | 319 | 4.3 | 11.3 | 0.00 | 0.00 | 0.00 | 75 | 1019.5 |
| 20260507215820 | 53 | 103 | 3.5 | 11.3 | 0.00 | 0.00 | 0.00 | 75 | 1019.5 |
| 20260507214754 | 53 | 133 | 2.6 | 11.3 | 0.00 | 0.00 | 0.00 | 76 | 1019.5 |
| 20260507214241 | 53 | 287 | 4.3 | 11.3 | 0.00 | 0.00 | 0.00 | 75 | 1019.7 |
| 20260507213728 | 53 | 5 | 4.3 | 11.3 | 0.00 | 0.00 | 0.00 | 75 | 1019.6 |
| 20260507213215 | 54 | 18 | 3.5 | 10.4 | 0.00 | 0.00 | 0.00 | 76 | 1019.6 |
| 20260507212702 | 54 | 5 | 4.3 | 10.4 | 0.00 | 0.00 | 0.00 | 75 | 1019.6 |
| 20260507211637 | 54 | 316 | 2.6 | 8.7 | 0.00 | 0.00 | 0.00 | 75 | 1019.7 |
| 20260507211123 | 53 | 312 | 2.6 | 10.4 | 0.00 | 0.00 | 0.00 | 77 | 1019.6 |
| 20260507210610 | 53 | 19 | 4.3 | 10.4 | 0.00 | 0.00 | 0.00 | 76 | 1019.5 |
| 20260507210057 | 53 | 316 | 6.1 | 10.4 | 0.00 | 0.00 | 0.00 | 75 | 1019.5 |
| 20260507205544 | 54 | 35 | 3.5 | 9.6 | 0.00 | 0.00 | 0.00 | 76 | 1019.5 |
| 20260507205031 | 54 | 338 | 4.3 | 9.6 | 0.00 | 0.00 | 0.00 | 75 | 1019.4 |
| 20260507204518 | 54 | 303 | 4.3 | 8.7 | 0.00 | 0.00 | 0.00 | 76 | 1019.4 |
| 20260507204006 | 54 | 42 | 3.5 | 11.3 | 0.00 | 0.00 | 0.00 | 76 | 1019.4 |
| 20260507203452 | 54 | 39 | 0.9 | 11.3 | 0.00 | 0.00 | 0.00 | 76 | 1019.5 |
| 20260507202939 | 53 | 317 | 4.3 | 11.3 | 0.00 | 0.00 | 0.00 | 76 | 1019.5 |
| 20260507202426 | 53 | 313 | 6.1 | 10.4 | 0.00 | 0.00 | 0.00 | 76 | 1019.5 |
| 20260507201913 | 53 | 64 | 6.1 | 10.4 | 0.00 | 0.00 | 0.00 | 76 | 1019.5 |
| 20260507201400 | 53 | 46 | 3.5 | 10.4 | 0.00 | 0.00 | 0.00 | 77 | 1019.6 |
| 20260507200847 | 53 | 40 | 4.3 | 10.4 | 0.00 | 0.00 | 0.00 | 77 | 1019.6 |
| 20260507200335 | 53 | 23 | 5.2 | 10.4 | 0.00 | 0.00 | 0.00 | 76 | 1019.6 |
| 20260507195821 | 53 | 26 | 4.3 | 8.7 | 0.00 | 0.00 | 0.00 | 76 | 1019.7 |
| 20260507195308 | 53 | 316 | 3.5 | 7.8 | 0.00 | 0.00 | 0.00 | 77 | 1019.8 |
| 20260507194755 | 53 | 35 | 4.3 | 11.3 | 0.00 | 0.00 | 0.00 | 77 | 1019.8 |
| 20260507194242 | 53 | 47 | 5.2 | 11.3 | 0.00 | 0.00 | 0.00 | 77 | 1019.9 |
| 20260507193729 | 53 | 308 | 5.2 | 11.3 | 0.00 | 0.00 | 0.00 | 77 | 1019.8 |
| 20260507193216 | 53 | 12 | 3.5 | 10.4 | 0.00 | 0.00 | 0.00 | 77 | 1019.9 |
| 20260507192703 | 53 | 42 | 4.3 | 7.8 | 0.00 | 0.00 | 0.00 | 77 | 1020.0 |
| 20260507192151 | 53 | 39 | 3.5 | 9.6 | 0.00 | 0.00 | 0.00 | 78 | 1020.0 |
| 20260507191637 | 53 | 303 | 4.3 | 9.6 | 0.00 | 0.00 | 0.00 | 78 | 1020.0 |
| 20260507191125 | 53 | 53 | 4.3 | 9.6 | 0.00 | 0.00 | 0.00 | 78 | 1020.1 |
| 20260507190058 | 53 | 289 | 4.3 | 11.3 | 0.00 | 0.00 | 0.00 | 78 | 1020.1 |
| 20260507184519 | 54 | 15 | 5.2 | 9.6 | 0.00 | 0.00 | 0.00 | 78 | 1020.1 |
| 20260507184006 | 53 | 330 | 5.2 | 9.6 | 0.00 | 0.00 | 0.00 | 78 | 1020.1 |
| 20260507183453 | 53 | 70 | 2.6 | 8.7 | 0.00 | 0.00 | 0.00 | 80 | 1020.1 |
| 20260507182940 | 53 | 61 | 3.5 | 8.7 | 0.00 | 0.00 | 0.00 | 79 | 1020.2 |
| 20260507182427 | 53 | 357 | 2.6 | 8.7 | 0.00 | 0.00 | 0.00 | 79 | 1020.1 |
| 20260507181914 | 53 | 343 | 5.2 | 8.7 | 0.00 | 0.00 | 0.00 | 79 | 1020.3 |
| 20260507181401 | 53 | 0 | 0.0 | 10.4 | 0.00 | 0.00 | 0.00 | 80 | 1020.2 |
| 20260507180848 | 53 | 302 | 1.7 | 10.4 | 0.00 | 0.00 | 0.00 | 81 | 1020.2 |
| 20260507180335 | 53 | 331 | 6.1 | 10.4 | 0.00 | 0.00 | 0.00 | 80 | 1020.3 |
| 20260507175822 | 53 | 58 | 1.7 | 8.7 | 0.00 | 0.00 | 0.00 | 81 | 1020.3 |
| 20260507175309 | 53 | 310 | 5.2 | 8.7 | 0.00 | 0.00 | 0.00 | 81 | 1020.3 |
| 20260507174756 | 52 | 334 | 3.5 | 8.7 | 0.00 | 0.00 | 0.00 | 81 | 1020.3 |
| 20260507174245 | 52 | 15 | 3.5 | 8.7 | 0.00 | 0.00 | 0.00 | 82 | 1020.3 |
| 20260507173730 | 52 | 357 | 4.3 | 8.7 | 0.00 | 0.00 | 0.00 | 82 | 1020.3 |
| 20260507173217 | 52 | 291 | 4.3 | 8.7 | 0.00 | 0.00 | 0.00 | 82 | 1020.3 |
| 20260507172704 | 52 | 343 | 3.5 | 7.8 | 0.00 | 0.00 | 0.00 | 83 | 1020.3 |
| 20260507172152 | 52 | 78 | 0.0 | 7.8 | 0.00 | 0.00 | 0.00 | 83 | 1020.3 |
| 20260507171638 | 52 | 320 | 3.5 | 7.8 | 0.00 | 0.00 | 0.00 | 83 | 1020.4 |
| 20260507171125 | 52 | 319 | 5.2 | 7.8 | 0.00 | 0.00 | 0.00 | 83 | 1020.5 |
| 20260507170612 | 52 | 334 | 2.6 | 7.8 | 0.00 | 0.00 | 0.00 | 84 | 1020.6 |
| 20260507170059 | 52 | 25 | 0.0 | 7.0 | 0.00 | 0.00 | 0.00 | 84 | 1020.5 |
| 20260507165546 | 52 | 102 | 0.9 | 7.0 | 0.00 | 0.00 | 0.00 | 84 | 1020.5 |
| 20260507165033 | 52 | 338 | 1.7 | 6.1 | 0.00 | 0.00 | 0.00 | 85 | 1020.7 |
| 20260507164520 | 51 | 249 | 0.0 | 6.1 | 0.00 | 0.00 | 0.00 | 85 | 1020.6 |
| 20260507164007 | 51 | 9 | 0.0 | 6.1 | 0.00 | 0.00 | 0.00 | 85 | 1020.6 |
| 20260507162941 | 51 | 357 | 0.9 | 8.7 | 0.00 | 0.00 | 0.00 | 85 | 1020.7 |
| 20260507162428 | 51 | 0 | 0.0 | 8.7 | 0.00 | 0.00 | 0.00 | 86 | 1020.5 |
| 20260507161915 | 51 | 152 | 3.5 | 7.8 | 0.00 | 0.00 | 0.00 | 86 | 1020.6 |
| 20260507161402 | 51 | 0 | 0.0 | 7.0 | 0.00 | 0.00 | 0.00 | 86 | 1020.6 |
| 20260507160849 | 51 | 310 | 0.0 | 5.2 | 0.00 | 0.00 | 0.00 | 86 | 1020.6 |
| 20260507160336 | 51 | 0 | 0.0 | 5.2 | 0.00 | 0.00 | 0.00 | 87 | 1020.5 |
| 20260507155823 | 51 | 0 | 0.0 | 4.3 | 0.00 | 0.00 | 0.00 | 87 | 1020.5 |
| 20260507155310 | 51 | 32 | 0.0 | 3.5 | 0.00 | 0.00 | 0.00 | 87 | 1020.5 |
| 20260507154757 | 51 | 309 | 0.0 | 3.5 | 0.00 | 0.00 | 0.00 | 87 | 1020.5 |
| 20260507154244 | 51 | 312 | 0.0 | 3.5 | 0.00 | 0.00 | 0.00 | 87 | 1020.7 |
| 20260507153731 | 51 | 319 | 0.0 | 4.3 | 0.00 | 0.00 | 0.00 | 87 | 1020.6 |
| 20260507153218 | 51 | 299 | 1.7 | 4.3 | 0.00 | 0.00 | 0.00 | 87 | 1020.7 |
| 20260507152705 | 51 | 323 | 1.7 | 4.3 | 0.00 | 0.00 | 0.00 | 87 | 1020.7 |
| 20260507152152 | 51 | 324 | 0.0 | 2.6 | 0.00 | 0.00 | 0.00 | 87 | 1020.7 |
| 20260507151639 | 51 | 0 | 0.0 | 1.7 | 0.00 | 0.00 | 0.00 | 88 | 1020.7 |
| 20260507151126 | 51 | 57 | 0.0 | 1.7 | 0.00 | 0.00 | 0.00 | 88 | 1020.6 |
| 20260507150613 | 51 | 0 | 0.0 | 0.0 | 0.00 | 0.00 | 0.00 | 88 | 1020.6 |
| 20260507145547 | 51 | 0 | 0.0 | 0.0 | 0.00 | 0.00 | 0.00 | 88 | 1020.7 |
| 20260507145034 | 51 | 0 | 0.0 | 0.0 | 0.00 | 0.00 | 0.00 | 88 | 1020.6 |
| 20260507143455 | 51 | 0 | 0.0 | 0.0 | 0.00 | 0.00 | 0.00 | 89 | 1020.7 |
| 20260507142942 | 51 | 0 | 0.0 | 0.0 | 0.00 | 0.00 | 0.00 | 89 | 1020.6 |
| 20260507142429 | 51 | 0 | 0.0 | 0.0 | 0.00 | 0.00 | 0.00 | 88 | 1020.6 |
| 20260507141916 | 51 | 0 | 0.0 | 0.0 | 0.00 | 0.00 | 0.00 | 89 | 1020.6 |
| 20260507141403 | 51 | 0 | 0.0 | 0.0 | 0.00 | 0.00 | 0.00 | 89 | 1020.5 |